Flag for U.S.A. Weather past 2 weeks in Inglewood, California, U.S.A.

Now
67 °F

Passing clouds.


Feels Like: 67 °F
Forecast: 64 / 77 °F
Wind: No wind

Location: Hawthorne Municipal Airport

Current Time: Aug 21, 2014 at 5:52:24 AM

Latest Report: Aug 21, 2014 at 4:53 AM


Visibility: 10 mi

Pressure: 29.91 "Hg

Humidity: 81%

Dew point: 61 °F

Location of InglewoodLocation

Historic Weather in Inglewood — Graph

°F

Inglewood temperature yesterday

Maximum temperature yesterday: 78 °F (at 12:53 PM)
Minimum temperature yesterday: 68 °F (at 11:53 PM)
Average temperature yesterday: 72 °F

Past Weeks' High & Low Weather Summary

 TemperatureHumidityPressure
High81 °F (Aug 16, 11:53 AM)94% (Aug 15, 3:53 AM)30.06 "Hg (Aug 15, 3:53 AM)
Low64 °F (Aug 15, 3:53 AM)44% (Aug 16, 3:53 PM)29.79 "Hg (Aug 18, 4:53 PM)
Average71 °F73%29.93 "Hg
* Reported Aug 6 4:53 AM — Aug 21 4:53 AM, Inglewood, Weather by CustomWeather, © 2014

Note: Actual official high and low records may vary slightly from our data, if they occured in-between our weather recording intervals... More about our weather records

Advertising

Inglewood weather history for previous 24 hours

 ConditionsComfort  
Time TempWeatherWind HumidityBarometerVisibility
4:53 AM
Aug 21
67 °FPassing clouds.No wind81%29.91 "Hg10 mi
3:53 AM68 °FClear.3 mph82%29.92 "Hg10 mi
2:53 AM68 °FClear.3 mph78%29.92 "Hg10 mi
1:53 AM68 °FClear.3 mph78%29.92 "Hg10 mi
12:53 AM68 °FClear.5 mph76%29.92 "Hg10 mi
11:53 PM
Aug 20
68 °FClear.3 mph78%29.93 "Hg10 mi
10:53 PM69 °FClear.5 mph76%29.93 "Hg10 mi
9:53 PM69 °FPassing clouds.5 mph76%29.92 "Hg10 mi
8:53 PM70 °FClear.10 mph73%29.90 "Hg10 mi
7:53 PM71 °FSunny.9 mph71%29.89 "Hg10 mi
6:53 PM72 °FPassing clouds.10 mph71%29.88 "Hg10 mi
5:53 PM73 °FSunny.12 mph69%29.88 "Hg10 mi
4:53 PM76 °FSunny.13 mph60%29.88 "Hg10 mi
3:53 PM76 °FSunny.10 mph58%29.89 "Hg10 mi
3:02 PM77 °FSunny.12 mph57%29.90 "Hg10 mi
2:53 PM76 °FSunny.10 mph58%29.90 "Hg1 mi
1:53 PM76 °FSunny.12 mph58%29.92 "Hg10 mi
12:53 PM78 °FSunny.14 mph52%29.92 "Hg10 mi
11:53 AM76 °FSunny.3 mph56%29.93 "Hg10 mi
10:53 AM76 °FPassing clouds.7 mph58%29.95 "Hg10 mi
9:53 AM74 °FPassing clouds.3 mph57%29.94 "Hg10 mi
8:53 AM72 °FScattered clouds.5 mph61%29.93 "Hg10 mi
7:53 AM71 °FPassing clouds.No wind66%29.91 "Hg10 mi
6:53 AM71 °FOvercast.No wind63%29.91 "Hg10 mi
5:53 AM70 °FOvercast.5 mph66%29.89 "Hg10 mi
Weather by CustomWeather, © 2014

See weather overviewHow to use our weather pages